Location: Piotrkow Trybunalski
(51.4000°N, 19.6830°E)
Time: 12:07:18
(UTC+02:00)

Explorer 7 - Visible Passes

Search period start: 31 May 2023 00:00
Search period end: 10 June 2023 00:00
Orbit: 477 x 653 km, 50.3° (Epoch: 30 May)

Date Brightness Start Highest point End Pass type
(mag) Time Alt. Az. Time Alt. Az. Time Alt. Az.
31 May 8.1 21:29:45 10° W 21:32:57 26° SSW 21:36:15 10° SSE visible
01 Jun 8.5 21:29:15 10° W 21:32:04 20° SW 21:34:57 10° SSE visible
02 Jun 8.9 21:28:58 10° WSW 21:31:09 15° SW 21:33:22 10° S visible
